STARLINK-4046, 52842

Orbit data source: Space-Track

STARLINK-4046, 52842 is a payload satellite owned by SpaceX/Seattle (US) in LEO that was launched on Fri, 17 Jun 2022 UTC via an FALCON 9 launch vehicle from the Air Force Eastern Test Range (AFETR). Payload-class satellites include a variety of spacecraft equipped with specific instruments for various scientific and technological missions. These include communications satellites like Starlink; space stations such as the ISS; scientific satellites like the Hubble; Earth observation satellites from companies like Planet Labs, Umbra, and HawkEye 360; GPS; miniature CubeSats for education and research; and military/defense satellites.

Loading next visibility...
Identifier
52842, 2022-062N
Orbit
LEO
Country
Flag of USUS
Related business
Manufacturer
SpaceX/Seattle
Mission
Operational Commercial Communications
Bus & Motor
STARLINK, Unknown motor
Mass
297 kg wet, ~275 kg dry
Launch date (UTC)
2022-06-17 (4 years ago)
Launch vehicle
FALCON 9
Launch site
Air Force Eastern Test Range (AFETR)
Object type
Payload
Rocket body
Debris
Shape & HBR
Box + 1 Pan, 10.1 m
Radar Cross Section
13.562 m², Large (>1 m²)

Expand to show TLE details & history
Last TLE update: 2 days ago

TLE from 2 days ago
0 STARLINK-4046
1 52842U 22062N   26171.34860110  .00000535  00000-0  51715-4 0  9999
2 52842  53.1602 293.0748 0001123  87.2637 272.8483 15.08836850221286
Epoch: 2026-06-20T08:21Z
TLE epoch observation values (Epoch: 2026-06-20T08:21:59.135Z)
Latitude
Longitude
-100.9861°
Altitude
540.606 km
Speed
7.593 km/s
True Right ascension
19h 32m 17s
True Declination
0° 00' 00"
Sunlit
Object was in full shadow at epoch
Visualization orbit readout
Latitude
Unknown
Longitude
Unknown
Altitude
Unknown
Speed
Unknown
Apparent Right ascension
Unknown
Apparent Declination
Unknown
Sunlit
N/A
Visualization observer readout
Local Sidereal Time
21:37:59
Azimuth
Unknown
Elevation
Unknown
Doppler factor
Unknown
Orbital elements
Apogee altitude
540.784 km
Perigee altitude
539.23 km
Semi-major axis
6,918.144 km
Eccentricity
0.00011
Inclination
53.1602°
RAAN
293.0748°
Arg. of periapsis
87.2637°
True anomaly
272.83545°
Mean anomaly
272.8483°
Eccentric anomaly
272.84187°
Mean motion
3.77189 °/min
Orbital period
95.44 mins
BSTAR
0.000051715
Loading maneuver chart data...
Computing Atmospheric mass density...
Loading historical data...
Loading historical data...
Loading historical data...
Loading historical data...
Loading historical data...
Loading historical data...
Loading historical data...

Documentation

Showing up to 5 results
|